South St. Paul, MN

9:07 AM CDT on May 24, 2017 (GMT -0500)
South Saint Paul Municipal-Fleming

Weather History for KSGS - October, 2012

Change the Weather History Date:

Tuesday, October 16, 2012

  Actual Average (KSTP) Record (KSTP)
Temperature  
Mean Temperature 56 °F -  
Max Temperature 63 °F 57 °F 75 °F (1996)
Min Temperature 48 °F 37 °F 24 °F (2002)
Degree Days  
Heating Degree Days 9    
Growing Degree Days 6 (Base 50)    
Moisture  
Dew Point 45 °F    
Average Humidity 64    
Maximum Humidity 90    
Minimum Humidity 52    
Precipitation  
Precipitation 0.00 in - - ()
Sea Level Pressure  
Sea Level Pressure 29.53 in    
Wind  
Wind Speed 6 mph (SSE)    
Max Wind Speed 13 mph    
Max Gust Speed 22 mph    
Visibility 10 miles    
Events Thunderstorm    
Averages and records for this station are not official NWS values.
T = Trace of Precipitation, MM = Missing Value Source: NWS Daily Summary

Daily Weather History Graph

Daily Weather History Graph

Search for Another Location

Airport or City:

Trip Planner

Search our weather history database for the weather conditions in past years. The results will help you decide how hot, cold, wet, or windy it might be!

Date:

Astronomy

Oct. 16, 2012 Rise Set
Actual Time 7:29 AM CDT 6:24 PM CDT
Civil Twilight 7:00 AM CDT 6:54 PM CDT
Nautical Twilight 6:26 AM CDT 7:28 PM CDT
Astronomical Twilight 5:52 AM CDT 8:02 PM CDT
Moon 8:58 AM CDT (10/16) 7:03 PM CDT (10/16)
Length of Visible Light 11h 54m
Length of Day
10h 55m
New Moon, 2% of the Moon is Illuminated
Oct 16
New Moon
Oct 21
First Quarter
Oct 29
Full
Nov 6
Last Quarter
Nov 13
New

Hourly Weather History & Observations

Time (CDT) Temp. Dew Point Humidity Pressure Visibility Wind Dir Wind Speed Gust Speed Precip Events Conditions
12:12 AM 55.8 °F 40.1 °F 56% 29.74 in 10.0 mi SSE 5.8 mph - N/A   Clear
12:32 AM 55.8 °F 40.3 °F 56% 29.73 in 10.0 mi SSE 6.9 mph - N/A   Clear
12:52 AM 56.1 °F 40.5 °F 56% 29.73 in 10.0 mi SSE 9.2 mph - N/A   Clear
1:12 AM 56.5 °F 40.1 °F 54% 29.72 in 10.0 mi SSE 9.2 mph - N/A   Clear
1:32 AM 56.7 °F 40.3 °F 54% 29.71 in 10.0 mi South 9.2 mph - N/A   Scattered Clouds
1:52 AM 57.2 °F 40.1 °F 53% 29.70 in 10.0 mi SSE 9.2 mph - N/A   Clear
2:12 AM 57.4 °F 40.1 °F 53% 29.70 in 10.0 mi SSE 12.7 mph 16.1 mph N/A   Scattered Clouds
2:32 AM 57.7 °F 40.1 °F 52% 29.70 in 10.0 mi South 11.5 mph 21.9 mph N/A   Scattered Clouds
2:52 AM 57.7 °F 40.1 °F 52% 29.68 in 10.0 mi South 11.5 mph 18.4 mph N/A   Scattered Clouds
3:12 AM 57.6 °F 40.1 °F 52% 29.68 in 10.0 mi South 8.1 mph - N/A   Scattered Clouds
3:32 AM 57.4 °F 40.3 °F 53% 29.67 in 10.0 mi SSE 5.8 mph - N/A   Scattered Clouds
3:52 AM 57.2 °F 40.6 °F 54% 29.67 in 10.0 mi South 5.8 mph - N/A   Mostly Cloudy
4:12 AM 57.2 °F 40.8 °F 54% 29.66 in 10.0 mi SSE 5.8 mph - N/A   Overcast
4:32 AM 56.8 °F 41.0 °F 55% 29.65 in 10.0 mi SSE 8.1 mph - N/A   Overcast
4:52 AM 56.8 °F 41.2 °F 56% 29.64 in 10.0 mi SSE 9.2 mph - N/A   Scattered Clouds
5:32 AM 56.5 °F 41.9 °F 58% 29.63 in 10.0 mi SSE 6.9 mph - N/A   Clear
5:52 AM 56.3 °F 41.9 °F 59% 29.63 in 10.0 mi South 4.6 mph - N/A   Clear
6:12 AM 55.8 °F 42.1 °F 60% 29.64 in 10.0 mi Calm Calm - N/A   Clear
6:32 AM 55.6 °F 42.3 °F 61% 29.62 in 10.0 mi SSE 3.5 mph - N/A   Clear
7:12 AM 54.7 °F 42.3 °F 63% 29.61 in 10.0 mi Calm Calm - N/A   Clear
7:32 AM 53.2 °F 42.1 °F 66% 29.61 in 10.0 mi Calm Calm - N/A   Scattered Clouds
7:52 AM 53.8 °F 42.4 °F 65% 29.60 in 10.0 mi SE 3.5 mph - N/A   Scattered Clouds
8:12 AM 54.5 °F 42.6 °F 64% 29.60 in 10.0 mi Calm Calm - N/A   Clear
8:32 AM 54.7 °F 42.8 °F 64% 29.60 in 10.0 mi SSE 5.8 mph - N/A   Clear
8:52 AM 55.0 °F 42.8 °F 63% 29.59 in 10.0 mi SSE 5.8 mph - N/A   Scattered Clouds
9:12 AM 55.9 °F 43.0 °F 62% 29.58 in 10.0 mi SSE 6.9 mph - N/A Thunderstorm Mostly Cloudy
9:32 AM 56.3 °F 43.0 °F 61% 29.57 in 10.0 mi SSE 8.1 mph - N/A   Mostly Cloudy
9:52 AM 56.3 °F 43.7 °F 63% 29.56 in 10.0 mi SE 6.9 mph - N/A   Scattered Clouds
10:12 AM 56.3 °F 44.2 °F 64% 29.55 in 10.0 mi SE 6.9 mph - N/A   Clear
10:32 AM 56.3 °F 44.2 °F 64% 29.56 in 10.0 mi South 10.4 mph - N/A   Clear
10:52 AM 56.8 °F 44.8 °F 64% 29.57 in 10.0 mi South 10.4 mph 16.1 mph N/A   Clear
11:12 AM 56.5 °F 45.0 °F 65% 29.55 in 10.0 mi SE 3.5 mph - N/A   Scattered Clouds
11:32 AM 56.5 °F 45.1 °F 66% 29.55 in 10.0 mi Calm Calm - N/A   Clear
11:52 AM 59.0 °F 45.5 °F 61% 29.55 in 10.0 mi Calm Calm - N/A   Clear
12:12 PM 59.4 °F 45.9 °F 61% 29.54 in 10.0 mi Calm Calm - N/A   Clear
12:32 PM 59.2 °F 45.9 °F 61% 29.52 in 10.0 mi SE 6.9 mph - N/A   Clear
12:52 PM 58.6 °F 46.0 °F 63% 29.50 in 10.0 mi SSE 5.8 mph - N/A   Clear
1:12 PM 59.5 °F 46.4 °F 62% 29.50 in 10.0 mi South 6.9 mph - N/A   Clear
1:32 PM 59.0 °F 47.1 °F 65% 29.48 in 10.0 mi SE 9.2 mph - N/A   Clear
1:52 PM 59.2 °F 47.7 °F 66% 29.47 in 10.0 mi SSE 8.1 mph - N/A   Clear
2:12 PM 59.2 °F 48.0 °F 66% 29.46 in 10.0 mi SSE 4.6 mph - N/A   Clear
2:32 PM 61.3 °F 48.2 °F 62% 29.45 in 10.0 mi SSE 8.1 mph - N/A   Clear
2:52 PM 63.7 °F 48.0 °F 57% 29.44 in 10.0 mi SSE 6.9 mph - N/A   Clear
3:12 PM 63.7 °F 47.5 °F 56% 29.45 in 10.0 mi SSE 6.9 mph - N/A   Clear
3:32 PM 63.3 °F 48.2 °F 58% 29.46 in 10.0 mi SE 4.6 mph - N/A   Clear
3:52 PM 63.5 °F 48.6 °F 58% 29.44 in 10.0 mi SSE 9.2 mph - N/A   Clear
4:12 PM 62.8 °F 48.6 °F 60% 29.45 in 10.0 mi SE 3.5 mph - N/A   Clear
4:32 PM 63.5 °F 48.7 °F 59% 29.45 in 10.0 mi SSE 4.6 mph - N/A   Clear
4:52 PM 62.8 °F 49.1 °F 61% 29.44 in 10.0 mi SE 5.8 mph - N/A   Clear
5:12 PM 63.0 °F 49.1 °F 61% 29.45 in 10.0 mi SSE 3.5 mph - N/A   Clear
5:32 PM 62.6 °F 49.1 °F 61% 29.44 in 10.0 mi East 3.5 mph - N/A   Clear
5:52 PM 62.1 °F 48.7 °F 62% 29.42 in 10.0 mi Calm Calm - N/A   Clear
6:12 PM 61.7 °F 48.7 °F 62% 29.42 in 10.0 mi East 4.6 mph - N/A   Clear
6:32 PM 60.8 °F 48.6 °F 64% 29.42 in 10.0 mi Calm Calm - N/A   Clear
6:52 PM 59.7 °F 48.4 °F 66% 29.42 in 10.0 mi Calm Calm - N/A   Clear
7:12 PM 57.9 °F 48.0 °F 70% 29.43 in 10.0 mi NNW 3.5 mph - N/A   Scattered Clouds
7:32 PM 59.0 °F 48.4 °F 68% 29.41 in 10.0 mi ENE 5.8 mph - N/A   Scattered Clouds
7:52 PM 58.1 °F 48.4 °F 70% 29.42 in 5.0 mi Calm Calm - N/A   Haze
8:12 PM 57.6 °F 48.0 °F 70% 29.42 in 10.0 mi Calm Calm - N/A   Clear
8:32 PM 57.7 °F 48.2 °F 70% 29.40 in 10.0 mi Calm Calm - N/A   Clear
8:52 PM 54.5 °F 47.1 °F 76% 29.40 in 10.0 mi Calm Calm - N/A   Clear
9:12 PM 52.2 °F 46.0 °F 80% 29.41 in 10.0 mi Calm Calm - N/A   Clear
9:32 PM 53.6 °F 47.3 °F 79% 29.40 in 10.0 mi Calm Calm - N/A   Clear
9:52 PM 51.8 °F 46.8 °F 83% 29.40 in 10.0 mi Calm Calm - N/A   Clear
10:32 PM 50.5 °F 46.4 °F 86% 29.40 in 10.0 mi Calm Calm - N/A   Clear
10:52 PM 50.9 °F 46.2 °F 84% 29.39 in 10.0 mi Calm Calm - N/A   Clear
11:12 PM 50.0 °F 45.9 °F 86% 29.39 in 10.0 mi Calm Calm - N/A   Clear
11:32 PM 49.5 °F 45.1 °F 85% 29.37 in 10.0 mi Calm Calm - N/A   Clear
11:52 PM 48.6 °F 45.7 °F 90% 29.38 in 10.0 mi Calm Calm - N/A   Clear